Torna al catalogo

FENGYUN 1C DEB

AttivoSSO
NORAD 30225·DEBRIS·🇨🇳 China

Lanciato May 10, 1999 da Taiyuan Satellite Launch Center

Loading…

Prossimi Passaggi (prossime 24 ore)

TLE

AggiornatoSource: Space-Track

Epoca: Sep 13, 2026, 00:29 UTC

1 30225U 99025WJ  26256.02058840  .00000159  00000-0  98716-4 0  9995
2 30225  98.6370 279.5233 0099645  20.8723  39.6098 14.15350711 14113

Traccia FENGYUN 1C DEB in tempo reale con AllMySat

Download on the App Store